Location: Vancouver
(49.2500°N, 123.1330°W)
Time: 01:36:36
(UTC-08:00)

Iridium 21 - Visible Passes

Search period start: 19 February 2018 00:00
Search period end: 01 March 2018 00:00
Orbit: 776 x 779 km, 86.4° (Epoch: 18 February)

Date Brightness Start Highest point End Pass type
(mag) Time Alt. Az. Time Alt. Az. Time Alt. Az.
26 Feb 8.4 22:35:54 11° N 22:35:54 11° N 22:36:02 10° N visible
27 Feb 8.2 22:02:09 13° N 22:02:09 13° N 22:02:39 10° N visible
28 Feb 7.9 21:28:21 14° N 21:28:21 14° N 21:29:04 10° N visible
28 Feb 8.6 23:08:48 10° NNW 23:08:48 10° NNW 23:08:51 10° NNW visible
